Location: Ch?enovice
(49.7164°N, 15.2160°E)
Time: 21:39:46
(UTC+00:00)

Helios 1A Rocket - Pass Details

Date: 23 May 2024
Orbit: 520 x 543 km, 98.3° (Epoch: 20 June)

Event Time Altitude Azimuth Distance (km) Brightness Sun altitude
Exits shadow 00:10:19 42° 192° (SSW) 773 3.0 -17.7°
Maximum altitude 00:11:27 66° 257° (WSW) 590 2.8 -17.7°
Drops below altitude 10° 00:15:18 10° 340° (NNW) 1,794 6.2 -17.5°
Sets 00:17:26 0° 344° (NNW) 2,685 7.2 -17.4°
